WB5MTX Weather Reports


time (UTC)temp
C
wind
direction
speed
KPH
gust
KPH
rain 1hr
cm
rain 24hr
cm
rain mn
cm
humidity
%
barometer
mb
20260506134554 11 0 3.2 19.3 0.00 0.00 0.00 81 1014.8
20260506133133 11 0 3.2 14.5 0.00 0.00 0.00 80 1013.8
20260506131558 11 329 1.6 16.1 0.00 0.00 0.00 79 1013.5
20260506130136 11 0 0.0 8.0 0.00 0.00 0.00 79 1013.5
20260506124558 12 0 1.6 16.1 0.00 0.00 0.00 78 1013.0
20260506123101 12 319 1.6 8.0 0.00 0.00 0.00 76 1012.8
20260506121600 12 0 1.6 16.1 0.00 0.00 0.00 75 1012.8
20260506120104 12 341 3.2 12.9 0.00 0.00 0.00 75 1012.4
20260506114554 13 323 3.2 14.5 0.00 0.00 0.00 75 1012.4
20260506113056 13 0 0.0 9.7 0.00 0.00 0.00 75 1012.2
20260506111554 13 0 1.6 14.5 0.00 0.00 0.00 76 1011.7
20260506110053 13 360 1.6 12.9 0.00 0.00 0.00 76 1011.5
20260506104603 13 360 0.0 16.1 0.00 0.00 0.00 76 1011.5
20260506103055 13 0 0.0 14.5 0.00 0.00 0.00 75 1011.2
20260506101552 13 327 0.0 16.1 0.00 0.00 0.00 76 1010.7
20260506100106 13 0 1.6 9.7 0.00 0.00 0.00 75 1010.5
20260506094601 13 0 0.0 12.9 0.00 0.00 0.00 76 1010.4
20260506093054 13 0 3.2 16.1 0.00 0.00 0.00 76 1010.3
20260506091552 14 0 0.0 14.5 0.00 0.00 0.00 76 1010.3
20260506090054 14 0 1.6 11.3 0.00 0.00 0.00 76 1010.3
20260506084554 14 0 0.0 14.5 0.00 0.00 0.00 77 1010.0
20260506083055 14 0 0.0 12.9 0.00 0.00 0.00 77 1009.8
20260506081605 14 311 1.6 14.5 0.00 0.00 0.00 77 1009.7
20260506073057 15 0 0.0 6.4 0.00 0.00 0.00 78 1009.4
20260506071553 15 0 0.0 0.0 0.00 0.00 0.00 77 1009.4
20260506061553 16 352 0.0 8.0 0.00 0.00 0.00 77 1009.4
20260506060107 16 0 1.6 8.0 0.00 0.00 0.00 76 1009.3
20260506044554 17 0 0.0 6.4 0.00 0.00 0.00 74 1009.4
20260506043056 18 0 0.0 14.5 0.00 0.00 0.00 74 1009.0
20260506041558 18 331 3.2 17.7 0.00 0.00 0.00 74 1009.2
20260506040055 18 345 4.8 22.5 0.00 0.00 0.00 72 1009.3
20260506034612 19 324 4.8 16.1 0.00 0.00 0.00 72 1009.0
20260506033055 19 0 1.6 16.1 0.00 0.00 0.00 71 1008.6
20260506031555 20 0 0.0 9.7 0.00 0.00 0.00 69 1008.2
20260506030054 20 0 0.0 9.7 0.00 0.00 0.00 69 1007.7
20260506024556 20 0 0.0 14.5 0.00 0.00 0.00 69 1007.6
20260506023101 20 0 0.0 8.0 0.00 0.00 0.00 68 1007.3
20260506021553 21 343 1.6 9.7 0.00 0.00 0.00 69 1007.3
20260506020054 21 0 3.2 17.7 0.00 0.00 0.00 68 1006.9
20260506014554 22 0 1.6 12.9 0.00 0.00 0.00 67 1006.5
20260506013106 22 0 0.0 12.9 0.00 0.00 0.00 67 1006.0
20260506011558 22 0 1.6 11.3 0.00 0.00 0.00 65 1005.7
20260506010108 23 0 0.0 9.7 0.00 0.00 0.00 65 1005.6
20260506004552 23 0 1.6 17.7 0.00 0.00 0.00 64 1005.4
20260506003056 24 309 0.0 9.7 0.00 0.00 0.00 61 1005.1
20260506001601 25 0 0.0 4.8 0.00 0.00 0.00 60 1005.2
20260506000056 25 0 0.0 17.7 0.00 0.00 0.00 59 1005.3
20260505234552 26 0 0.0 17.7 0.00 0.00 0.00 58 1004.8
20260505233104 26 319 4.8 16.1 0.00 0.00 0.00 58 1004.6
20260505231553 27 330 3.2 20.9 0.00 0.00 0.00 58 1004.4
20260505230057 29 319 1.6 17.7 0.00 0.00 0.00 52 1004.2
20260505224559 30 0 3.2 16.1 0.00 0.00 0.00 48 1004.2
20260505223055 30 327 3.2 16.1 0.00 0.00 0.00 46 1003.9
20260505221556 33 0 0.0 4.8 0.00 0.00 0.00 43 1003.8
20260505214633 32 269 0.0 8.0 0.00 0.00 0.00 45 1003.7
20260505213116 33 0 3.2 11.3 0.00 0.00 0.00 43 1003.7
20260505211556 33 0 0.0 14.5 0.00 0.00 0.00 42 1003.7
20260505210055 33 0 1.6 12.9 0.00 0.00 0.00 41 1004.0
20260505204556 33 0 0.0 11.3 0.00 0.00 0.00 45 1004.2
20260505203056 32 267 1.6 11.3 0.00 0.00 0.00 44 1004.3
20260505201559 32 266 6.4 17.7 0.00 0.00 0.00 48 1004.5
20260505200056 32 296 1.6 12.9 0.00 0.00 0.00 50 1004.5
20260505194553 32 240 3.2 16.1 0.00 0.00 0.00 49 1004.6
20260505193053 31 0 3.2 22.5 0.00 0.00 0.00 50 1004.7
20260505191605 31 278 4.8 19.3 0.00 0.00 0.00 51 1004.8
20260505184551 30 225 4.8 24.1 0.00 0.00 0.00 56 1004.8
20260505183114 30 292 1.6 17.7 0.00 0.00 0.00 61 1005.0
20260505181553 28 223 4.8 24.1 0.00 0.00 0.00 61 1005.2
20260505180057 28 242 4.8 22.5 0.00 0.00 0.00 65 1005.2
20260505174609 28 0 0.0 12.9 0.00 0.00 0.00 68 1005.2
20260505173054 27 0 6.4 22.5 0.00 0.00 0.00 69 1005.3
20260505171558 26 189 3.2 24.1 0.00 0.00 0.00 70 1005.3
20260505170058 26 0 3.2 24.1 0.00 0.00 0.00 71 1005.2
20260505164557 26 0 3.2 19.3 0.00 0.00 0.00 71 1005.3
20260505163053 26 215 9.7 25.7 0.00 0.00 0.00 71 1005.1
20260505161621 25 0 4.8 25.7 0.00 0.00 0.00 74 1004.8
20260505153053 23 233 3.2 20.9 0.00 0.00 0.00 78 1005.0
20260505151606 23 221 4.8 24.1 0.00 0.00 0.00 79 1005.0